www.pogodaiklimat.ru

Погода и климат >> Архив погоды >> Туркменистан >> Койтендаг


ПОГОДА в Койтендаге

  • Прогноз погоды в Койтендаге
  • Монитор погоды в Койтендаге

АРХИВ ПОГОДЫ в Койтендаге

Время (UTC), дата Ветер
(напр.,м/с)
 
Видим.   Явления Облачность Т
(С)
Тd
(С)
f
(%)
Тe
(С)
Тes
(С)
Комфортность P
(гПа)
Po
(гПа)
Тmin
(С)
Tmax
(С)
R
(мм)
R24
(мм)
S
(см)
03 9.06 штиль 0 10 км ясно +27.2 +5.9 26 +26 +34 жарко 1012.2 982.1 +20.6
06 9.06 СЗ 2 10 км ясно +32.4 +9.0 24 +31 +50 жарко 1011.4 981.9 +20.6
09 9.06 СЗ 3 10 км ясно +36.6 +7.8 17 +35 +50 очень
жарко
1009.5 980.4
12 9.06 СЗ 2 10 км 5/0
[Ci fib]
+36.2 +4.8 14 +33 +39 жарко 1008.4 979.2
15 9.06 СЗ 6 10 км 6/0
[Ac cast]
+29.8 +5.8 22 +28 +28 жарко 1008.8 979.0 +37.1
18 9.06 СЗ 5 10 км 8/0
[Ac cast]
+27.0 +7.4 29 +27 +27 жарко 1010.6 980.5 +37.1
21 9.06 З 4 10 км 10/0
[Ac As]
+24.8 +9.2 37 +25 +25 комфорт 1011.5 981.2
00 10.06 З 3 10 км 4/0
[Ac As]
+21.0 +10.6 51 +23 +23 комфорт 1012.4 981.7
03 10.06 СЗ 2 10 км 3/0
[Ac lent]
+24.0 +9.0 38 +25 +29 комфорт 1013.1 982.6 +20.2
06 10.06 З 5 10 км 3/0
[Ac lent]
+29.0 +8.5 28 +29 +36 жарко 1013.7 983.7 +20.2
09 10.06 СЗ 4 10 км ясно +30.6 +5.8 21 +29 +42 жарко 1013.5 983.7
12 10.06 С 5 10 км ясно +31.2 +4.6 19 +29 +33 жарко 1012.9 983.1
15 10.06 СЗ 3 10 км ясно +28.4 +4.0 21 +27 +27 жарко 1013.7 983.6 +31.8
18 10.06 СЗ 4 10 км ясно +25.0 +3.4 25 +24 +24 комфорт 1014.7 984.3 +31.8
21 10.06 СЗ 4 10 км ясно +22.4 +4.3 31 +23 +23 комфорт 1014.5 983.8
00 11.06 СЗ 3 10 км ясно +20.0 +5.1 38 +21 +21 комфорт 1014.9 984.0
03 11.06 СЗ 3 10 км ясно +23.2 +7.3 36 +24 +29 комфорт 1015.2 984.6 +20.0
06 11.06 СЗ 6 10 км 4/4 600 м
[Cu med, cong]
+28.0 +5.6 24 +27 +31 жарко 1014.4 984.3 +20.0
09 11.06 СЗ 5 10 км 6/6 600 м
[Cu med, cong]
+29.8 +5.1 21 +28 +32 жарко 1014.0 984.1
12 11.06 СЗ 4 10 км 6/6 600 м
[Cu med, cong]
+30.4 +5.6 21 +29 +30 жарко 1012.9 983.0
15 11.06 СЗ 2 10 км ясно +28.8 +5.8 23 +28 +28 жарко 1012.9 982.9 +31.6
18 11.06 штиль 0 10 км ясно +25.4 +5.8 28 +25 +25 комфорт 1013.8 983.4 +31.6
21 11.06 штиль 0 10 км ясно +21.8 +5.9 36 +22 +22 комфорт 1013.5 982.8
00 12.06 штиль 0 10 км ясно +18.0 +6.2 46 +18 +18 1014.0 982.9
03 12.06 Ю 2 10 км ясно +22.1 +6.4 36 +23 +28 комфорт 1014.4 983.7 +17.3
06 12.06 штиль 0 10 км ясно +29.3 +9.3 29 +29 +54 опасность
солнечного
удара
1013.4 983.5 +17.3
09 12.06 ЮВ 2 10 км ясно +31.7 +7.1 22 +30 +49 жарко 1011.7 982.1
12 12.06 ЮВ 2 10 км ясно +32.4 +5.8 19 +30 +37 жарко 1010.2 980.6
15 12.06 штиль 0 10 км ясно +28.7 +10.4 32 +29 +29 жарко 1009.8 979.9 +32.5
18 12.06 штиль 0 10 км ясно +25.7 +8.2 33 +26 +26 жарко 1010.3 980.1 +32.5
21 12.06 штиль 0 10 км ясно +24.2 +8.2 36 +25 +25 комфорт 1009.5 979.1
00 13.06 штиль 0 10 км ясно +20.7 +9.0 47 +22 +22 комфорт 1009.4 978.7
03 13.06 штиль 0 10 км ясно +26.3 +10.2 36 +27 +35 жарко 1009.6 979.5 +20.1
06 13.06 В 2 10 км ясно +33.0 +8.1 21 +31 +50 жарко 1007.8 978.3 +20.1
09 13.06 ЮВ 2 10 км ясно +35.5 +8.4 19 +34 +53 опасность
солнечного
удара
1005.7 976.7
12 13.06 З 2 10 км ясно +35.6 +7.7 18 +34 +40 очень
жарко
1003.9 974.9
15 13.06 З 2 10 км ясно +32.6 +6.7 20 +31 +31 жарко 1003.5 974.2 +36.5
18 13.06 штиль 0 10 км ясно +28.7 +7.4 26 +28 +28 жарко 1004.2 974.5 +36.5
21 13.06 штиль 0 10 км 5/0
[Ci fib]
+26.2 +6.2 28 +26 +26 жарко 1004.2 974.2
00 14.06 штиль 0 10 км 5/0
[Ci fib]
+22.8 +6.4 35 +23 +23 комфорт 1004.3 974.0
03 14.06 штиль 0 10 км 5/0
[Ci fib]
+26.4 +10.2 36 +27 +34 жарко 1005.5 975.6 +22.1
06 14.06 штиль 0 10 км 3/0
[Ci fib]
+32.4 +6.1 19 +30 +54 опасность
солнечного
удара
1005.4 976.0 +22.1
09 14.06 СЗ 3 10 км 3/0
[Ci fib]
+36.6 +2.9 12 +33 +48 жарко 1004.8 975.9
12 14.06 З 2 10 км 1/0
[Ci fib]
+37.1 +1.1 10 +33 +40 жарко 1003.7 974.8
15 14.06 штиль 0 10 км ясно +34.0 +5.6 17 +32 +32 жарко 1003.7 974.5 +37.8
18 14.06 штиль 0 10 км ясно +29.2 +7.1 25 +28 +28 жарко 1004.5 974.8 +37.8
21 14.06 СЗ 2 10 км ясно +26.4 +5.1 26 +26 +26 жарко 1005.0 975.0
00 15.06 штиль 0 10 км ясно +22.0 +7.1 38 +23 +23 комфорт 1005.6 975.2
03 15.06 штиль 0 10 км 3/0
[Ci sp]
+28.4 +10.2 32 +29 +36 жарко 1006.1 976.4 +21.0
06 15.06 СЗ 4 10 км 8/0
[Ac cast]
+33.4 +5.8 18 +31 +37 жарко 1007.9 978.4 +21.0
09 15.06 СЗ 4 10 км 4/0
[Ci fib]
+36.4 +7.7 17 +34 +46 очень
жарко
1006.6 977.5
12 15.06 СЗ 3 10 км 3/0
[Ci fib]
+38.1 +8.6 17 +36 +41 очень
жарко
1005.6 976.7
15 15.06 СЗ 2 10 км ясно +34.2 +10.3 23 +33 +33 жарко 1006.4 977.3 +38.6
18 15.06 штиль 0 10 км ясно +30.2 +8.2 25 +29 +29 жарко 1006.8 977.3 +38.6
21 15.06 штиль 0 10 км ясно +28.0 +8.2 29 +28 +28 жарко 1007.3 977.3
00 16.06 штиль 0 10 км ясно +25.0 +8.8 36 +26 +26 жарко 1008.3 978.0

 

Местоположение метеостанции Койтендаг (Дашогузский велаят, Туркменистан): широта 37.52 долгота 66.02 высота над уровнем моря 265 м.

В архиве по умолчанию представлена погода в Койтендаге за последнюю неделю. Архивные данные за месяц целиком и за предыдущие месяцы, начиная с января 2011 года, Вы можете получить, выбрав интересующий диапазон дат из раскрывающегося списка и нажав кнопку "Ввод!".


*Определитесь, кто Вы:
робот инопланетянин человек

Внимание! Время в таблицах - всемирное. Для получения местного времени необходимо прибавить поправку, которая равна 5 ч.

Смотрите также архив погоды в соседних городах и на ближайших метеорологических станциях:

Погода в Атамурате (Лебапский велаят, Туркменистан) (80 км)
Погода в Ширабаде (Сухрандарьинская область, Узбекистан) (90 км)
Погода в Дехканабаде (Сырдарьинская область, Узбекистан) (101 км)
Погода в Акрабате (Узбекистан) (108 км)
Погода в Термезе (Сухрандарьинская область, Узбекистан) (115 км)
Погода в Гузаре (Кашкадарьинская область, Узбекистан) (124 км)
Погода в Байсуне (Сухрандарьинская область, Узбекистан) (128 км)
Погода в Мазари-Шарифе (Афганистан) (139 км)
Погода в Карши (Кашкадарьинская область, Узбекистан) (145 км)
Погода в Минчукуре (Кашкадарьинская область, Узбекистан) (149 км)

Пояснения к столбцам:

Ветер - указаны скорость ветра в м/с - средняя за 10 мин, порывы в срок и между сроками (в фигурных скобках) и направление, откуда дует ветер: С - северный, СВ - северо-восточный, В - восточный, ЮВ - юго-восточный, Ю - южный, ЮЗ - юго-западный, З - западный, СЗ - северо-западный.
Видимость - горизонтальная дальность видимости в метрах или километрах. При видимости от 1 до 10 км при отсутствии осадков обычно наблюдается дымка, при ухудшении видимости до 1 км и менее - туман. В сухую погоду видимость может ухудшаться дымом, пылью или мглою.
Явления - указаны атмосферные явления, наблюдавшиеся в срок или в последний час перед сроком; фигурными скобками обозначены явления, наблюдавшиеся между сроками (за 1-3 часа до срока); квадратными скобками обозначены град или гололедные отложения с указанием их диаметра в мм.
Облачность - указаны через наклонную черту общая и нижняя облачность в баллах и высота нижней границы облаков в метрах; квадратными скобками обозначены формы облаков: Ci - перистые, Cs - перисто-слоистые, Cc - перисто-кучевые, Ac - высококучевые, As - высокослоистые, Sc - слоисто-кучевые, Ns - слоисто-дождевые, Cu - кучевые, Cb - кучево-дождевые. Подробнее классификацию облаков см. в Атласе облаков (PDF).
T - Температура воздуха - температура, измеренная на высоте 2 м над землей.
Td - Температура точки росы - температура, при понижении до которой содержащийся в воздухе водяной пар достигнет насыщения.
f - Относительная влажность воздуха - влажноcть воздуха, измеренная на высоте 2 м над землей.
Te - Эффективная температура - температура, которую ощущает одетый по сезону человек в тени. Характеристика душности погоды. При расчете учитывается влияние влажности воздуха и скорости ветра на теплоощущения человека.
Tes - Эффективная температура на солнце - температура, которую ощущает человек, с поправкой на солнечный нагрев. Характеристика знойности погоды. Зависит от высоты солнца над горизонтом, облачности и скорости ветра. Ночью, в пасмурную погоду, а также при ветре 12 м/с и более поправка равна нулю.
P - Атмосферное давление - приведенное к уровню моря атмосферное давление.
Po - Атмосферное давление - измеренное на уровне метеостанции атмосферное давление.
Tmin - Минимальная температура - минимум температуры воздуха на высоте 2 м над землей.
Tmax - Максимальная температура - максимум температуры воздуха на высоте 2 м над землей.
R - Количество осадков - Количество выпавших осадков за период времени, мм. При наведении курсора мыши на число - период времени, за который выпало указанное количество осадков.
R24 - Количество осадков - Количество выпавших осадков за 24 часа, мм.
S - Снежный покров - Высота снежного покрова, см. При наведении курсора мыши на число - состояние снежного покрова и степень покрытия местности в баллах.